Regional Weather Roundup
Issued by NWS Little Rock, AR

Home | Current Version | Previous Version | Graphics & Text | Print | Product List | Glossary On
Versions: 1 2 3 4 5 6 7 8 9 10 11 12 13 14 15 16 17 18 19 20 21 22 23 24 25 26 27 28 29 30 31 32 33 34 35 36 37 38 39 40 41 42 43 44 45 46 47 48
000
ASUS44 KLZK 011305
RWRLZK

WEATHER ROUNDUP FOR ARKANSAS
NATIONAL WEATHER SERVICE LITTLE ROCK AR
800 AM CDT MON JUN 01 2015

NOTE: "FAIR" INDICATES FEW OR NO CLOUDS BELOW 12,000 FEET WITH NO
SIGNIFICANT WEATHER AND/OR OBSTRUCTIONS TO VISIBILITY.

ARZ001-003-010-029-011400-
NORTHWEST ARKANSAS

CITY           SKY/WX    TMP DP  RH WIND       PRES   REMARKS
FAYETTEVILLE   CLOUDY    62  60  93 NE3       30.12S
FORT SMITH     MOSUNNY   67  63  87 E3        30.09S
HARRISON       CLOUDY    58  57  97 NE3       30.14S
BENTONVILLE    CLOUDY    61  55  82 E6        30.13S
ROGERS         CLOUDY    60  58  92 E7        30.14S
SILOAM SPGS    CLOUDY    61  55  82 CALM      30.14R
HIGHFILL       CLOUDY    61  59  93 CALM      30.13R
SPRINGDALE     CLOUDY    61  59  94 NE8       30.15R
$$

ARZ004-005-016-011400-
NORTH CENTRAL ARKANSAS

CITY           SKY/WX    TMP DP  RH WIND       PRES   REMARKS
BATESVILLE     CLOUDY    63  55  77 NE5       30.12S
FLIPPIN        CLOUDY    61  55  82 E5        30.12S
MTN HOME       CLOUDY    58  56  93 CALM      30.13R
$$

ARZ040-041-011400-
WEST CENTRAL ARKANSAS

CITY           SKY/WX    TMP DP  RH WIND       PRES   REMARKS
MENA           MOSUNNY   68  64  88 CALM      30.11R
MOUNT IDA      CLOUDY    66  64  93 CALM      30.08R
$$

ARZ009-017-025-026-028-011400-
NORTHEAST ARKANSAS

CITY           SKY/WX    TMP DP  RH WIND       PRES   REMARKS
CORNING          N/A     59  57  94 N7        30.13R
JONESBORO      CLOUDY    61  58  90 N7        30.12R
NEWPORT        CLOUDY    61  59  93 N8        30.13S
WALNUT RIDGE   SUNNY     61  54  77 N8        30.12S
BLYTHEVILLE    CLOUDY    62  59  90 N12       30.12R
NW BLYTHEVILLE CLOUDY    61  57  88 N9        30.12
$$

ARZ022-023-033-042-044-011400-
CENTRAL ARKANSAS

CITY           SKY/WX    TMP DP  RH WIND       PRES   REMARKS
LITTLE ROCK    CLOUDY    65  59  81 NE8       30.11R
N LITTLE ROCK    N/A     62  61  97 NE7       30.11R
JACKSONVILLE   CLOUDY    63  59  88 NE8       30.11R
SEARCY         CLOUDY    62  58  86 NE8       30.13R
HOT SPRINGS    CLOUDY    66  63  90 E5        30.10R
RUSSELLVILLE   CLOUDY    65  64  97 CALM      30.10R
CLINTON        CLOUDY    63  63 100 CALM      30.13R
$$

ARZ036-011400-
EAST ARKANSAS

CITY           SKY/WX    TMP DP  RH WIND       PRES   REMARKS
WEST MEMPHIS   CLOUDY    61  61 100 N9        30.10R
$$

ARZ050-053-066-070-073-011400-
SOUTHWEST ARKANSAS

CITY           SKY/WX    TMP DP  RH WIND       PRES   REMARKS
ARKADELPHIA    PTSUNNY   67  67 100 VRB3      30.10R
CAMDEN         CLOUDY    68  63  83 N8        30.08R
TEXARKANA      CLOUDY    67  65  93 NE6       30.08R
EL DORADO      CLOUDY    66  64  93 N7        30.07R
DE QUEEN       MOSUNNY   68  65  90 E3        30.07R
$$

ARZ056-057-069-011400-
SOUTHEAST ARKANSAS

CITY           SKY/WX    TMP DP  RH WIND       PRES   REMARKS
PINE BLUFF     CLOUDY    65  60  84 NE12      30.10R
STUTTGART      CLOUDY    63  57  82 NE14      30.10R
MONTICELLO     CLOUDY    66  65  96 NE7       30.07R

$$




USA.gov is the U.S. government's official web portal to all federal, state and local government web resources and services.